Helicity
100 67 54 49 -27 -5 44 69 56 39 3 11 28 83 60 -2 -14 -9 -5 22 -25 -4 45 24 37 18 3 -18 -51 -41 -44 -28 -50 -61 -52 -43 -47 -44 -43 -27 -2 25 41 41 43 35 33 40 35 49 46 50 61 75
89 63 45 36 -18 -6 12 56 84 55 -13 -18 -35 -49 -13 -20 -16 -0 -11 13 19 -8 22 33 44 51 42 15 -70 -47 -64 -53 -62 -73 -55 -52 -35 -40 -10 26 10 31 49 43 51 43 55 52 49 70 70 77 79 90
77 66 51 35 10 2 -2 38 84 65 -16 3 -27 -72 -56 15 61 49 32 11 23 23 75 63 76 84 72 45 8 -69 -54 -40 -54 -43 -48 -32 -12 -3 15 21 26 31 62 53 36 42 49 67 73 77 91 102 118 113
68 61 49 38 35 -3 1 18 36 86 9 -7 -0 -7 -31 21 30 30 27 23 25 10 7 40 78 81 122 75 -36 -45 -36 -26 -9 -20 -19 -11 -9 12 16 27 42 50 77 64 49 43 54 64 77 96 118 137 135 132
65 48 55 35 26 17 12 1 36 36 64 15 30 22 -1 1 17 46 33 41 35 11 3 33 86 96 123 111 70 45 16 21 10 3 9 3 5 16 23 32 56 90 91 108 68 66 86 80 83 125 144 143 138 140
69 48 46 38 22 15 8 4 12 22 74 14 10 45 8 32 31 42 65 53 60 45 38 31 55 96 126 123 114 100 77 64 36 25 20 16 28 18 29 34 19 50 64 82 95 92 110 120 124 139 153 150 154 158
61 49 50 46 23 22 10 11 -19 16 34 13 8 46 45 52 64 48 47 18 66 55 45 45 41 83 107 110 95 89 90 65 43 29 22 29 22 30 42 93 79 71 86 101 114 138 135 127 131 141 161 178 171 169
57 55 47 44 29 21 29 41 11 -3 25 30 17 56 86 87 84 70 31 45 60 67 59 48 42 56 95 83 72 79 60 56 44 30 20 12 18 43 27 39 60 97 123 131 141 132 135 152 173 182 190 190 186 176
54 58 53 45 29 21 36 76 87 109 23 29 39 81 105 124 104 87 34 75 65 64 50 51 55 42 92 95 74 64 63 25 21 17 24 19 43 45 32 68 89 96 109 127 146 146 153 154 167 176 180 176 174 167
55 63 63 50 31 32 49 82 90 113 64 74 119 118 93 86 83 70 85 85 94 101 96 47 63 59 69 105 77 57 47 43 28 22 28 35 42 49 80 104 113 125 155 158 168 145 160 163 166 170 168 164 161 156
56 67 65 52 35 37 57 88 110 173 124 76 117 118 64 79 90 111 86 99 105 91 80 78 80 70 56 95 81 45 49 51 61 39 57 40 36 44 78 124 128 137 121 135 154 168 168 165 163 164 158 160 169 177
61 64 69 50 30 39 60 89 133 141 88 59 74 70 79 112 120 112 120 139 97 78 87 89 105 110 82 90 92 60 83 82 71 54 76 49 34 51 85 99 105 117 144 153 156 150 145 137 147 173 178 171 198 198
65 59 59 53 20 36 59 76 103 143 129 113 157 153 126 108 134 124 104 111 136 71 46 110 153 140 123 120 120 99 113 104 80 93 71 47 64 61 89 110 114 118 140 148 140 151 142 142 167 202 193 209 217 214
66 58 46 34 23 30 53 88 155 189 188 154 130 162 107 133 114 73 63 68 85 87 92 165 195 152 153 162 105 135 118 118 117 99 60 67 42 77 127 126 143 137 142 136 144 152 155 175 179 184 219 217 228 218
60 52 47 20 7 18 97 141 184 255 193 178 122 101 92 114 66 30 29 54 76 93 152 168 185 141 162 159 124 130 116 106 77 66 65 50 91 144 142 129 145 153 145 149 154 167 176 189 200 191 177 186 198 198
62 70 63 5 28 93 157 312 261 230 188 213 181 139 81 94 68 46 54 62 79 96 147 155 149 154 157 168 159 126 148 107 81 64 73 115 162 152 135 149 159 155 154 155 166 171 177 190 190 163 152 166 179 187
86 138 64 64 93 167 303 291 238 203 172 227 211 140 93 65 41 19 38 66 93 140 152 154 161 141 145 189 165 120 104 77 66 94 103 142 151 132 141 152 155 162 165 168 168 176 175 164 152 167 159 148 158 156
166 100 50 100 187 362 377 287 242 242 280 225 235 153 110 89 28 33 14 60 134 147 120 165 143 169 174 150 102 81 77 103 131 117 146 153 134 138 136 145 151 156 161 156 154 147 147 153 149 136 135 131 129 144
143 85 60 153 301 350 342 351 350 359 314 245 228 227 118 65 116 44 -5 53 130 133 154 144 156 114 115 95 80 64 67 95 110 127 155 127 122 123 129 137 137 140 145 141 148 151 141 139 134 137 134 128 135 146
68 52 55 163 259 309 352 327 327 336 269 170 240 307 182 91 111 83 44 129 139 157 169 155 131 107 83 117 75 56 62 105 159 170 116 95 99 115 124 118 119 125 135 139 142 167 141 133 130 118 104 108 120 117
107 68 31 318 266 282 347 304 312 262 248 225 210 285 186 186 170 142 88 170 169 181 166 84 94 114 118 116 98 115 101 108 99 80 70 77 82 110 114 114 114 130 147 154 153 133 130 113 104 91 98 98 84 74
359 394 349 323 255 303 296 249 266 266 281 266 307 256 116 134 169 191 163 161 159 144 83 35 114 154 166 149 133 118 126 163 149 144 148 123 95 102 104 105 128 142 133 130 124 108 104 98 84 78 84 79 57 77
359 448 309 311 259 313 298 300 322 266 262 266 373 247 130 123 175 236 149 71 136 98 83 106 159 190 208 200 182 175 143 135 115 109 103 93 98 102 111 114 117 127 135 120 109 103 101 71 65 70 84 73 67 75
410 416 363 325 389 325 313 417 400 380 336 280 318 252 128 203 176 155 92 132 147 150 129 154 215 248 235 174 126 125 96 94 121 115 77 86 94 86 105 110 122 118 121 104 100 98 93 88 62 72 81 87 81 73
549 374 315 483 489 475 441 453 504 483 386 392 317 188 134 149 131 127 101 139 166 153 160 196 174 157 145 125 148 124 59 72 94 84 53 72 106 117 116 122 126 112 100 104 96 100 100 92 84 87 84 78 63 47
468 443 528 574 645 507 501 493 459 467 418 365 311 237 172 135 112 47 81 139 172 200 188 162 155 144 107 140 160 77 59 86 111 94 62 70 87 104 112 135 127 88 74 86 88 93 91 80 73 70 83 71 30 36
464 467 537 575 574 642 612 565 503 480 395 315 329 267 234 113 25 41 113 165 219 175 220 243 187 135 124 173 137 150 162 128 102 84 104 100 94 99 121 119 97 71 59 63 80 79 78 68 66 69 80 85 60 41
367 421 476 589 754 688 561 553 490 424 345 313 339 225 85 47 10 55 103 186 173 292 380 342 246 197 213 214 175 226 204 163 161 164 159 129 100 85 107 94 70 43 69 62 58 63 65 62 66 66 68 65 63 49
423 434 505 541 605 556 422 336 326 355 412 418 299 133 149 176 127 129 139 206 247 300 399 396 356 357 380 302 232 180 159 139 154 114 76 71 73 51 52 51 54 55 50 48 35 44 40 63 55 62 59 57 54 51
469 478 523 477 377 343 374 393 347 327 369 365 356 220 137 125 145 111 125 240 254 275 365 369 359 263 243 177 159 188 89 55 72 79 85 72 60 89 76 54 59 53 51 59 56 52 60 66 51 48 48 50 50 51
411 455 465 410 336 342 273 352 362 305 294 263 312 225 172 105 95 102 158 245 306 335 360 314 235 223 185 170 142 125 73 33 56 69 110 148 125 86 64 70 65 64 65 64 73 74 69 67 57 51 59 59 49 53
547 431 425 382 352 284 234 297 344 286 260 235 213 216 145 102 83 94 122 208 222 215 186 180 173 82 121 145 120 89 81 117 72 74 117 106 87 69 71 72 71 73 68 78 84 76 72 73 58 57 57 51 47 48
558 517 471 381 337 320 271 260 228 211 227 215 188 178 159 115 73 117 178 171 185 199 152 169 213 212 150 116 103 106 106 106 105 103 97 91 84 78 77 80 71 68 87 84 86 76 80 73 62 60 56 50 45 46
Wind_Speed
42 40 45 38 52 53 47 48 40 29 52 43 42 41 42 44 44 18 15 18 26 25 28 34 37 43 45 43 47 47 44 40 39 37 35 34 33 31 29 27 25 24 24 22 22 19 15 26 26 22 24 27 27 30
40 39 36 38 52 56 55 49 48 39 49 41 34 31 33 37 38 30 23 22 17 19 31 36 32 31 35 40 43 44 40 38 37 36 33 32 29 28 26 21 22 20 21 20 19 18 23 25 22 28 26 27 28 30
35 36 32 37 39 59 56 51 47 41 43 43 36 25 23 30 34 32 29 28 23 21 22 28 33 34 32 36 40 40 37 33 32 30 30 28 26 25 22 19 19 18 18 16 18 19 12 17 24 26 28 28 30 33
31 33 32 33 39 58 59 53 46 43 42 43 36 30 22 28 30 31 30 31 26 24 26 32 34 31 35 33 28 25 25 24 27 26 24 23 21 22 20 19 17 19 21 17 11 11 17 15 18 23 27 31 33 37
26 29 33 31 35 43 59 55 49 43 43 39 35 29 29 27 25 25 28 30 30 31 28 24 30 32 32 29 24 20 19 21 21 20 20 19 21 20 18 17 11 14 14 15 17 23 24 25 26 21 26 32 35 39
27 26 34 33 38 36 47 56 51 45 44 36 32 28 28 28 26 32 36 34 32 30 29 27 32 29 32 28 24 22 20 19 19 19 19 20 20 21 21 20 20 19 18 18 21 24 25 28 27 27 30 34 38 42
28 26 30 32 37 36 42 41 55 52 42 30 26 28 28 26 27 31 34 32 30 31 31 30 29 27 29 26 24 23 24 20 18 18 16 17 18 20 18 12 19 15 18 20 22 24 27 26 30 28 32 37 40 45
27 27 27 28 34 37 38 40 56 39 27 25 27 29 27 22 23 34 35 32 29 28 31 31 32 27 25 20 18 25 21 21 25 18 20 18 20 21 18 16 21 19 20 22 24 26 28 30 31 33 38 41 47 52
26 27 26 29 35 38 32 34 28 20 26 26 25 27 33 32 35 35 31 32 31 33 32 32 29 30 22 21 21 21 24 20 24 19 17 19 17 14 18 19 17 16 20 23 24 28 30 32 34 38 42 46 51 56
22 24 23 24 30 34 29 26 17 21 23 26 30 35 41 36 34 31 34 36 38 40 36 35 29 27 21 19 18 18 24 20 23 21 22 18 18 12 18 19 17 14 20 24 30 33 33 36 37 42 47 49 52 58
19 21 22 21 25 27 20 15 11 16 26 38 40 42 37 35 33 37 42 40 39 40 36 32 29 23 26 19 18 20 22 23 25 23 21 26 26 25 21 16 18 19 18 23 28 33 35 38 43 48 52 53 55 58
18 19 18 22 22 20 15 8 9 15 26 37 36 34 33 37 40 42 42 42 40 43 33 30 25 24 22 20 23 22 22 24 26 22 25 26 25 27 23 22 22 22 25 28 32 36 40 43 47 50 53 55 57 59
19 19 17 18 21 16 11 1 6 9 14 32 40 43 44 45 54 51 47 45 45 34 28 25 20 27 24 25 27 25 24 24 21 24 24 21 27 25 21 23 23 25 28 34 37 41 45 49 52 53 57 58 59 61
19 21 21 18 19 17 9 2 4 12 24 38 50 60 56 55 55 53 54 46 40 33 18 16 25 31 27 26 26 27 27 24 26 26 23 25 21 23 21 23 26 29 33 39 44 49 54 58 60 61 61 62 64 65
23 24 22 22 21 18 4 10 6 26 30 31 49 61 67 61 56 50 46 42 38 22 16 22 29 30 29 29 28 26 28 27 21 23 26 22 24 26 25 25 29 35 40 45 51 57 62 65 68 68 68 68 67 66
21 27 24 19 18 1 14 9 16 32 38 39 53 64 60 61 62 55 49 48 35 22 24 29 34 37 37 32 32 29 29 29 27 26 23 24 28 29 28 31 35 40 45 49 56 61 64 69 71 72 72 72 70 68
20 29 23 12 1 11 15 5 17 29 37 42 56 71 70 63 62 56 49 45 31 29 39 35 42 41 31 40 37 29 35 32 22 22 23 26 27 29 32 36 41 45 49 55 60 65 68 69 70 75 79 77 73 68
29 21 13 4 8 10 11 16 20 28 42 51 53 70 69 63 57 54 47 41 34 44 41 45 31 41 42 40 36 33 26 21 22 21 24 27 29 33 36 40 44 48 54 59 63 66 67 73 76 77 77 76 74 69
23 17 9 15 7 9 14 21 24 34 43 51 53 60 72 69 57 52 49 41 43 44 42 43 45 47 47 40 35 18 11 16 16 21 26 29 31 34 38 43 47 52 58 62 64 67 69 72 73 74 76 75 75 72
20 16 14 20 15 15 21 29 31 43 50 50 49 56 71 74 62 54 51 47 51 51 54 52 50 45 44 38 26 13 10 12 16 22 26 28 32 35 41 46 51 54 58 60 63 67 70 72 71 73 73 74 74 74
19 19 21 12 18 24 28 26 32 41 42 47 46 50 72 70 69 62 58 48 57 62 63 56 52 42 34 26 15 9 10 13 20 25 25 27 31 36 43 47 51 54 58 63 67 69 70 70 71 70 71 69 66 66
18 9 16 18 24 27 30 30 33 36 41 38 29 49 66 73 65 58 48 59 66 67 56 53 45 32 24 16 12 11 14 19 24 28 31 32 37 41 45 48 53 56 59 60 64 67 67 67 68 67 67 64 64 63
14 20 20 22 29 29 29 26 34 32 37 28 30 57 68 67 61 52 64 68 68 56 49 43 36 31 19 16 11 12 17 19 24 28 32 37 39 41 44 47 49 53 57 58 61 64 65 66 65 65 62 62 61 60
19 28 32 33 34 30 27 34 30 29 35 32 43 69 73 67 56 63 74 70 61 52 45 37 31 27 24 18 16 14 18 20 25 30 33 36 38 42 44 47 48 51 52 56 60 61 63 65 63 61 60 59 58 59
38 41 41 43 38 34 33 30 31 31 36 37 47 67 68 59 67 72 79 70 59 55 43 39 37 32 23 19 17 17 19 20 25 31 33 34 37 41 45 47 49 49 49 58 61 62 64 62 60 57 57 56 57 56
52 46 46 41 42 44 43 44 40 40 45 49 53 62 62 68 73 79 76 70 59 52 43 41 37 33 28 21 12 14 16 21 26 33 30 30 34 40 44 47 49 49 47 53 57 60 61 60 57 55 55 55 53 53
57 50 47 42 38 37 40 42 40 44 55 54 48 70 74 82 83 77 64 56 58 55 46 44 39 30 21 17 18 19 17 23 30 31 29 30 33 37 40 44 46 47 48 51 54 55 56 55 53 50 50 49 48 47
54 50 54 45 44 45 44 43 46 55 61 49 38 77 85 82 80 64 56 49 46 40 41 40 37 28 20 14 10 12 19 23 26 30 33 36 35 33 38 42 46 46 48 49 51 51 50 49 48 47 48 48 46 46
43 35 38 45 45 49 50 49 60 58 51 47 55 82 79 72 59 55 49 40 36 39 43 37 31 22 16 13 14 19 14 14 21 29 32 34 35 32 29 36 44 47 49 51 51 50 47 48 47 47 47 45 45 45
37 40 44 50 47 49 51 49 49 45 41 40 56 64 64 60 54 47 41 39 38 44 43 36 27 22 17 14 14 19 17 14 23 27 29 30 31 32 33 37 42 46 48 51 53 52 49 50 50 51 51 52 52 52
45 53 54 57 59 52 42 42 41 34 39 56 61 66 64 56 48 41 37 40 37 39 38 34 30 23 16 12 8 10 13 14 19 24 28 29 30 32 34 38 41 44 46 49 50 50 50 51 52 53 55 56 56 56
54 59 50 52 47 34 33 33 32 51 59 64 64 58 57 54 55 42 42 38 39 41 38 30 24 18 15 9 8 16 19 11 12 17 22 26 30 32 34 36 38 41 44 47 47 47 48 50 51 53 54 56 57 58
44 44 42 35 37 40 28 32 51 61 62 65 62 61 58 54 55 45 44 47 46 43 36 29 23 10 4 4 9 14 15 14 16 18 20 25 29 31 33 34 35 39 42 43 45 45 47 48 49 51 52 54 56 57
Wind_Direction
17 20 25 27 314 318 318 324 320 314 35 35 45 60 54 58 56 354 261 248 203 204 201 193 191 181 175 173 161 159 161 176 165 159 153 150 149 145 142 136 127 124 118 113 103 108 108 38 35 44 28 14 8 357
16 20 25 29 310 317 321 319 327 315 11 41 60 81 51 53 12 357 279 268 276 247 211 194 200 204 198 184 157 161 150 145 142 137 140 128 137 132 135 136 115 124 107 92 104 87 44 29 30 11 10 5 359 352
14 18 24 28 27 315 317 317 322 331 359 10 24 69 95 355 330 330 307 276 275 267 254 242 231 222 230 217 193 156 152 124 122 116 116 113 121 107 119 126 112 100 76 80 65 55 59 35 17 10 4 0 356 349
10 13 19 23 24 354 317 309 313 317 326 342 357 15 54 355 339 320 298 285 283 278 281 258 250 263 251 258 141 113 106 84 80 87 99 109 113 101 100 91 97 78 69 67 67 48 29 23 17 10 4 357 350 346
8 8 11 17 19 16 330 309 300 310 315 334 342 350 4 348 342 337 314 299 293 284 295 299 277 277 283 300 330 4 63 71 85 86 81 95 82 79 67 57 85 80 65 55 37 33 24 19 14 10 359 352 348 345
2 5 5 9 10 14 1 316 298 298 302 316 324 328 345 335 334 302 285 294 296 297 306 315 297 300 291 306 336 357 16 28 50 60 57 58 59 55 55 55 60 65 51 42 27 26 21 15 13 7 358 352 348 344
355 0 1 4 4 10 4 354 304 286 288 305 314 308 322 326 326 305 295 296 299 303 304 313 316 307 298 310 327 343 352 15 37 43 49 48 45 35 28 25 31 55 44 35 31 26 12 11 3 4 356 352 348 344
347 353 356 2 3 6 8 359 325 286 279 295 301 301 311 322 323 302 315 296 296 303 304 307 307 313 307 316 334 331 346 357 359 21 27 29 25 21 26 38 36 47 39 30 23 17 11 10 6 359 354 350 345 342
340 347 351 354 357 360 12 13 10 335 287 291 293 299 294 293 288 301 322 304 295 290 296 297 306 305 314 313 327 334 333 351 354 9 22 23 22 31 22 24 33 41 26 20 19 12 7 1 357 353 350 346 342 340
335 343 348 351 356 359 11 20 27 6 295 292 281 279 278 286 294 305 303 289 286 283 289 292 300 304 309 310 328 348 340 348 359 6 19 9 353 350 3 14 20 33 25 24 6 358 357 354 352 349 345 344 341 340
327 338 343 348 353 358 12 35 53 22 306 279 267 270 290 289 289 289 282 280 281 285 285 289 289 302 295 303 316 327 339 343 348 359 10 3 3 8 15 18 22 26 27 12 7 3 360 354 348 345 342 342 341 341
319 329 334 339 346 356 7 54 115 326 311 275 275 281 281 277 279 278 278 279 280 281 286 282 285 292 298 311 311 314 330 335 342 11 3 2 10 9 25 31 33 26 15 7 4 359 354 350 346 343 341 339 339 339
311 320 324 331 338 347 360 47 168 317 342 286 270 264 266 265 263 266 268 276 275 283 286 279 276 275 290 295 303 312 319 327 358 356 359 5 8 16 30 27 22 17 10 3 359 355 352 348 346 343 339 338 337 337
303 312 316 322 328 330 333 194 190 292 305 277 255 252 255 256 261 264 269 280 280 285 280 273 269 276 284 281 302 309 313 331 337 343 355 2 16 15 20 19 14 9 3 358 355 353 350 348 345 343 340 338 337 335
301 308 311 316 318 319 197 169 234 285 286 287 257 252 250 258 265 277 280 281 284 284 263 269 276 281 276 287 293 306 312 322 339 352 356 8 10 9 14 13 9 3 359 357 355 352 350 349 347 345 344 343 341 338
299 309 303 305 314 219 150 142 286 280 281 283 266 253 256 261 262 270 276 273 279 264 267 275 269 275 274 283 286 290 307 316 335 343 359 7 6 8 12 11 7 2 359 357 355 353 351 350 348 347 347 347 346 344
293 311 315 307 209 138 143 286 295 277 284 276 275 254 255 262 264 269 273 274 269 255 260 270 265 269 283 277 285 294 300 318 341 356 4 7 9 12 11 8 3 1 359 356 354 353 352 352 352 351 350 351 350 349
291 305 296 221 141 135 305 292 283 285 278 275 279 257 254 259 264 269 273 274 259 259 263 268 275 269 275 283 292 293 306 333 349 4 8 11 12 10 8 5 2 1 358 356 355 355 356 355 355 355 354 354 354 354
283 287 257 179 196 293 292 282 279 287 279 278 275 271 255 257 263 268 270 269 266 267 269 267 271 269 272 284 291 304 326 341 355 360 2 6 8 8 6 5 3 360 358 357 358 358 359 359 359 358 358 358 357 358
264 270 215 180 194 290 292 294 289 278 282 277 274 276 257 253 258 263 267 264 259 261 260 262 265 276 277 280 290 309 339 8 12 1 360 2 5 6 3 2 0 0 0 1 2 1 1 2 3 3 2 2 2 2
263 269 195 197 275 283 281 295 288 287 277 277 281 277 258 251 251 255 258 259 255 255 256 263 269 273 276 283 300 330 3 13 357 354 360 2 3 4 2 2 2 3 2 1 1 1 3 4 4 5 5 7 9 10
284 212 275 263 282 282 281 283 289 284 279 283 281 272 252 244 247 250 256 253 254 254 258 264 264 257 260 270 291 328 356 1 1 3 5 8 0 359 0 2 2 2 3 4 3 3 5 6 6 8 9 12 13 16
222 266 272 270 280 270 281 266 279 285 284 272 280 259 243 244 248 250 253 252 253 259 258 263 252 252 251 269 298 330 344 358 359 1 1 1 2 5 5 5 6 4 4 5 6 6 7 7 9 10 13 15 17 19
253 247 259 261 265 265 271 270 277 279 280 279 274 250 243 246 248 251 250 251 255 251 251 243 233 237 253 265 286 313 335 354 359 358 360 2 3 4 6 6 8 8 9 8 7 8 8 8 10 12 15 16 19 19
251 253 258 258 259 252 253 260 267 272 275 271 267 250 245 248 249 251 248 250 249 244 240 229 231 238 247 263 285 310 332 350 352 351 358 5 6 7 5 7 8 11 12 8 8 8 8 10 11 14 16 18 18 21
252 256 248 250 245 249 246 253 251 263 270 267 266 255 250 248 249 249 249 246 245 238 225 215 220 235 248 264 280 312 334 345 352 351 2 9 8 5 4 6 7 9 12 11 9 8 8 10 13 15 17 18 21 22
246 255 249 257 248 250 256 259 259 259 261 265 265 248 243 242 245 249 252 252 243 239 226 224 227 233 239 258 292 320 344 347 347 357 11 13 12 12 12 11 10 11 11 10 10 10 10 11 14 17 18 20 23 24
252 245 237 236 245 249 253 253 256 256 258 265 263 244 236 239 243 251 255 253 246 227 218 223 232 241 244 260 295 337 341 350 2 8 10 7 10 15 17 16 13 12 13 13 12 13 14 16 17 19 19 18 22 23
250 237 224 233 244 252 254 256 257 261 258 256 254 239 238 244 255 258 259 252 238 218 208 210 227 234 246 276 304 322 350 8 0 353 354 359 4 11 17 15 12 14 15 14 16 17 19 21 22 22 22 23 23 23
231 231 237 237 239 252 258 260 263 264 271 263 245 240 244 250 259 263 255 240 227 215 213 212 212 218 230 257 291 317 335 356 352 355 358 2 10 20 22 18 18 17 18 18 18 21 25 25 25 23 23 23 22 21
226 233 239 242 246 256 266 264 265 267 258 243 239 237 240 247 255 258 247 237 224 210 205 211 225 236 242 267 292 323 335 353 1 6 14 23 26 24 23 22 21 20 21 21 22 24 25 26 24 23 22 21 20 20
233 236 238 244 252 259 267 267 258 242 236 232 232 236 237 242 243 246 236 222 210 209 215 212 216 229 261 293 330 335 346 28 39 33 32 28 25 23 23 22 23 23 23 23 25 26 27 26 25 23 23 22 21 21
234 236 240 255 254 253 258 253 238 230 229 228 234 234 236 240 238 237 228 225 221 220 218 227 241 231 240 328 353 1 21 48 51 46 39 30 24 23 23 25 25 24 24 26 26 27 27 26 26 25 24 23 23 22